FW7205 Weather Reports


time (UTC)temp
F
wind
direction
speed
knots
gust
knots
rain 1hr
in
rain 24hr
in
rain mn
in
humidity
%
barometer
mb
20260502170108 69 0 0.0 3.5 0.01 0.47 0.01 60 1021.0
20260502163053 68 65 0.0 3.5 0.00 0.47 0.00 61 1021.0
20260502161557 66 22 0.0 3.5 0.00 0.47 0.00 65 1021.0
20260502151555 63 0 0.0 1.7 0.00 0.54 0.00 76 1020.9
20260502123056 50 0 0.0 0.0 0.00 0.80 0.00 92 1019.2
20260502121555 50 0 0.0 0.9 0.00 0.80 0.00 92 1018.7
20260502114559 50 0 0.0 0.0 0.00 0.99 0.00 92 1018.4
20260502113057 50 0 0.0 0.0 0.00 0.99 0.00 92 1018.1
20260502111608 51 0 0.0 0.0 0.00 0.99 0.00 92 1018.1
20260502110057 51 0 0.0 0.0 0.00 0.99 0.00 92 1017.8
20260502104554 51 0 0.0 0.9 0.00 1.09 0.00 92 1017.6
20260502103110 51 0 0.0 0.0 0.00 1.09 0.00 92 1017.4
20260502101609 51 0 0.0 0.9 0.00 1.09 0.00 92 1017.3
20260502100104 51 0 0.0 0.9 0.00 1.09 0.00 91 1017.2
20260502070057 52 0 0.0 0.9 0.00 1.41 0.00 91 1016.2
20260502064601 53 0 0.0 0.9 0.00 1.41 0.00 91 1016.3
20260502063059 53 0 0.0 1.7 0.00 1.41 0.00 92 1016.3
20260502061600 53 360 0.0 1.7 0.00 1.41 0.00 92 1016.1
20260502060057 52 0 0.0 0.9 0.00 1.41 0.00 92 1016.3
20260502054602 52 360 0.0 1.7 0.00 1.42 0.00 92 1016.3
20260502053059 52 0 0.0 1.7 0.00 1.42 0.00 92 1016.4
20260502051601 52 360 0.0 2.6 0.00 1.42 0.00 92 1016.5
20260502050059 52 360 0.9 3.5 0.00 1.42 0.00 92 1016.2
20260502044602 52 360 0.9 3.5 0.00 1.54 1.42 92 1016.1
20260502043107 52 360 0.9 4.3 0.00 1.54 1.42 93 1016.1
20260502041555 52 360 0.9 3.5 0.00 1.54 1.42 93 1016.0
20260502040058 52 360 0.9 3.5 0.00 1.54 1.42 93 1016.1
20260502034554 52 360 0.9 2.6 0.00 1.55 1.42 93 1016.3
20260502033057 52 360 0.9 4.3 0.00 1.55 1.42 93 1016.2
20260502031556 52 360 0.9 7.0 0.00 1.55 1.42 93 1016.1
20260502030100 53 360 0.9 3.5 0.00 1.55 1.42 93 1015.8
20260502024557 53 360 0.9 3.5 0.00 1.55 1.42 94 1015.8
20260502023057 53 0 0.9 4.3 0.00 1.55 1.42 94 1015.5
20260502021556 54 360 0.0 2.6 0.00 1.55 1.42 94 1015.4
20260502020059 53 0 0.0 3.5 0.00 1.55 1.42 94 1014.7
20260502014559 54 360 0.9 5.2 0.00 1.55 1.42 94 1013.8
20260502013059 54 360 0.9 4.3 0.00 1.55 1.42 94 1013.6
20260502011602 54 360 0.9 4.3 0.00 1.55 1.42 94 1013.8
20260502010054 54 360 0.9 2.6 0.00 1.55 1.42 94 1013.8
20260502004608 54 360 0.9 2.6 0.01 1.55 1.42 94 1013.8
20260502003056 54 55 0.9 3.5 0.01 1.55 1.42 94 1013.8
20260502001554 55 63 0.9 4.3 0.01 1.55 1.42 94 1013.4
20260502000110 55 360 0.9 4.3 0.03 1.55 1.42 94 1013.7
20260501234558 56 360 0.9 2.6 0.04 1.54 1.41 94 1013.4
20260501233053 56 360 0.0 2.6 0.05 1.54 1.41 94 1013.2
20260501231555 57 360 0.0 2.6 0.06 1.54 1.41 94 1012.9
20260501230055 57 360 0.0 2.6 0.05 1.52 1.39 94 1012.4
20260501224554 57 360 0.9 2.6 0.03 1.50 1.37 94 1012.0
20260501223102 57 360 0.9 5.2 0.02 1.49 1.36 94 1011.3
20260501221554 57 360 1.7 4.3 0.04 1.48 1.35 94 1011.1
20260501220106 57 0 0.9 7.8 0.09 1.47 1.34 94 1011.0
20260501214555 58 360 3.5 5.2 0.15 1.47 1.34 94 1010.0
20260501213111 58 360 1.7 7.0 0.20 1.47 1.34 95 1010.4
20260501211555 58 360 0.9 3.5 0.19 1.44 1.31 94 1010.8
20260501210058 58 360 0.9 2.6 0.14 1.38 1.25 94 1010.7
20260501204557 58 360 0.9 3.5 0.10 1.39 1.19 94 1011.1
20260501203058 58 360 0.9 3.5 0.06 1.34 1.14 94 1010.9
20260501201557 58 360 0.9 4.3 0.07 1.32 1.12 94 1010.4
20260501200055 58 360 0.9 2.6 0.10 1.31 1.11 94 1010.9
20260501194558 58 360 0.0 2.6 0.08 1.29 1.09 94 1011.2
20260501193055 59 360 0.9 2.6 0.07 1.28 1.08 94 1011.3
20260501191556 59 0 0.0 2.6 0.04 1.25 1.04 94 1011.2
20260501190055 59 360 0.9 3.5 0.00 1.21 1.01 94 1010.4
20260501184601 59 360 0.0 2.6 0.00 1.22 1.01 94 1011.1
20260501183059 59 360 0.9 3.5 0.00 1.22 1.01 94 1009.9
20260501181558 59 360 1.7 4.3 0.01 1.22 1.01 95 1009.3
20260501180057 60 360 0.9 7.0 0.05 1.22 1.01 95 1009.4